[[{"header":{"parameterUnit":"m.s-1","parameterCategory":1,"la1":30.2991,"la2":30.254,"lo1":-89.0895,"lo2":-89.0444,"dy":0.0017,"dx":0.0017,"nx":28,"ny":28,"refTime":"2025-03-24T21:00:00:Z","depth":0,"parameterNumber":2,"parameterNumberName":"U-component_of_WINDS"},"data":[0,0,0,0,0,0,0,0,0,0,0,0,0,0,0,0,0,0,0,0,0,0,0,0,0,0,0,0,0,0,0,0,0,0,0,0,0,0,0,0,0,0,0,0,0,0,0,0,0,0,0,0,0,0,0,0,0,0,-0.2989,-0.2989,0,-0.3031,-0.3031,-0.3032,-0.3055,-0.3055,-0.3055,-0.3055,-0.31,-0.3101,-0.3102,0,0,0,0,0,0,0,0,0,0,0,0,0,-0.2929,-0.293,-0.2989,-0.2989,-0.299,-0.3031,-0.3031,-0.3032,-0.3055,-0.3055,-0.3055,-0.3055,-0.31,-0.3101,-0.3103,0,0,0,0,0,0,0,0,0,0,0,0,0,-0.2962,-0.293,-0.2988,-0.3006,-0.3008,-0.3031,-0.3031,-0.3032,-0.3055,-0.3055,-0.3055,-0.3056,-0.3099,-0.3101,-0.3103,-0.3111,0,0,-0.3108,-0.3109,0,0,0,0,0,0,0,0,-0.296,-0.2964,-0.3003,-0.3005,-0.3007,-0.3038,-0.3027,-0.3059,-0.3055,-0.3037,-0.3055,-0.3056,-0.308,-0.3083,-0.3091,-0.3113,-0.3115,-0.3108,-0.3109,-0.311,-0.311,0,0,0,0,0,0,0,-0.2957,-0.2962,-0.3005,-0.3004,-0.3006,-0.3012,-0.3017,-0.3033,-0.3057,-0.3039,-0.3041,-0.3045,-0.3081,-0.3089,-0.3092,-0.3116,-0.3108,-0.311,-0.3111,-0.3111,-0.3148,-0.3148,0,0,0,0,0,0,-0.2952,-0.296,-0.3004,-0.3007,-0.2983,-0.3013,-0.3019,-0.3028,-0.3057,-0.3062,-0.3045,-0.3046,-0.3086,-0.309,-0.3094,-0.3105,-0.311,-0.3111,-0.3112,-0.3148,-0.3148,-0.3148,0,0,0,0,0,0,-0.2951,-0.2956,-0.3002,-0.2984,-0.299,-0.3014,-0.3025,-0.3029,-0.3037,-0.3062,-0.3067,-0.3049,-0.3086,-0.3091,-0.3107,-0.3107,-0.3112,-0.3114,-0.3148,-0.3148,-0.3148,-0.3129,0,0,0,0,0,0,-0.2949,-0.2955,-0.2959,-0.2984,-0.2991,-0.3014,-0.3025,-0.3029,-0.304,-0.3041,-0.3067,-0.3071,-0.3087,-0.3104,-0.3108,-0.311,-0.3115,-0.3148,-0.3148,-0.3148,-0.3129,-0.3128,-0.3127,0,0,0,0,0,-0.2947,-0.2952,-0.2959,-0.2964,-0.2996,-0.3014,-0.3018,-0.3036,-0.304,-0.3043,-0.3059,-0.307,-0.3106,-0.3105,-0.311,-0.3112,-0.3148,-0.3148,-0.3148,-0.313,-0.3128,-0.3127,0,0,0,0,0,0,-0.2927,-0.2956,-0.2963,-0.2977,-0.2993,-0.3018,-0.3023,-0.3033,-0.3049,-0.305,-0.3071,-0.3077,-0.309,-0.3103,-0.3101,-0.3122,-0.3128,-0.3129,-0.3113,-0.3112,-0.311,-0.3107,-0.3117,0,0,0,0,0,-0.2924,-0.2936,-0.2961,-0.297,-0.2978,-0.2999,-0.3008,-0.302,-0.3037,-0.3044,-0.3062,-0.3079,-0.3094,-0.3104,-0.3119,-0.3131,-0.3137,-0.3135,-0.3134,-0.3133,-0.3133,-0.314,-0.314,-0.3147,-0.3147,-0.3147,0,0,-0.2919,-0.2936,-0.2942,-0.2967,-0.2981,-0.2993,-0.3005,-0.3018,-0.3027,-0.3047,-0.3062,-0.3075,-0.3096,-0.3109,-0.3116,-0.312,-0.3132,-0.3132,-0.3131,-0.3133,-0.314,-0.3139,-0.3139,-0.3147,-0.3147,-0.3147,0,0,-0.2914,-0.2929,-0.2938,-0.2951,-0.2972,-0.2986,-0.2988,-0.3011,-0.3021,-0.3036,-0.3051,-0.3063,-0.3089,-0.3102,-0.3113,-0.3113,-0.3124,-0.3118,-0.3111,-0.3118,-0.3117,-0.3117,-0.3117,-0.3116,-0.3118,-0.3118,-0.3118,0,-0.2905,-0.2924,-0.2941,-0.2953,-0.2963,-0.2981,-0.299,-0.3003,-0.3027,-0.3034,-0.3038,-0.307,-0.3086,-0.3103,-0.3102,-0.3111,-0.3114,-0.3115,-0.3116,-0.3115,-0.3115,-0.3115,-0.3115,-0.3117,-0.3117,-0.3117,-0.3118,0,-0.2911,-0.2924,-0.2929,-0.2951,-0.2962,-0.2973,-0.2992,-0.3001,-0.3012,-0.3025,-0.3041,-0.306,-0.3079,-0.3084,-0.3095,-0.3102,-0.3104,-0.3111,-0.3118,-0.3113,-0.3114,-0.3114,-0.3116,-0.3116,-0.3117,-0.3117,0,0,-0.2896,-0.2927,-0.2929,-0.2939,-0.2963,-0.2973,-0.2984,-0.3003,-0.301,-0.3026,-0.3036,-0.3057,-0.3064,-0.3076,-0.3088,-0.3094,-0.3093,-0.3101,-0.3102,-0.3099,-0.3102,-0.3096,-0.3096,-0.31,-0.31,-0.31,-0.31,0,-0.2896,-0.2916,-0.2932,-0.2946,-0.2958,-0.2975,-0.2984,-0.3,-0.3013,-0.3025,-0.304,-0.3054,-0.3062,-0.3069,-0.3076,-0.3092,-0.3094,-0.3092,-0.311,-0.311,-0.3104,-0.3096,-0.309,-0.3089,-0.3101,-0.3101,-0.3101,0,-0.2898,-0.2912,-0.2928,-0.2949,-0.2955,-0.2963,-0.2981,-0.2992,-0.301,-0.3019,-0.3032,-0.3045,-0.3058,-0.3063,-0.3081,-0.308,-0.3088,-0.3097,-0.3097,-0.31,-0.3105,-0.3098,-0.309,-0.3089,-0.3101,-0.3101,-0.3101,0,-0.2885,-0.2908,-0.2921,-0.2929,-0.2954,-0.296,-0.2971,-0.2989,-0.2999,-0.3014,-0.3021,-0.3038,-0.3047,-0.306,-0.3077,-0.308,-0.3094,-0.3101,-0.3102,-0.3101,-0.3104,-0.3103,-0.3096,-0.3109,-0.3109,-0.3109,-0.3109,0,-0.2882,-0.2891,-0.2915,-0.2923,-0.2933,-0.2951,-0.2961,-0.2973,-0.2989,-0.3,-0.3015,-0.3025,-0.3047,-0.3059,-0.3073,-0.3086,-0.309,-0.3098,-0.3101,-0.3096,-0.3095,-0.3102,-0.3102,-0.3109,-0.3109,-0.3109,-0.3109,0,-0.287,-0.2886,-0.29,-0.2923,-0.2929,-0.2935,-0.2955,-0.2963,-0.2977,-0.299,-0.2994,-0.3015,-0.303,-0.3049,-0.307,-0.3079,-0.3091,-0.3096,-0.3084,-0.3086,-0.3086,-0.3086,-0.3083,-0.3083,-0.3096,-0.3096,-0.3096,0,-0.2867,-0.2874,-0.2897,-0.2904,-0.2915,-0.2927,-0.2937,-0.2955,-0.2964,-0.2985,-0.299,-0.3006,-0.302,-0.3044,-0.3062,-0.3078,-0.3084,-0.3082,-0.3087,-0.3081,-0.3084,-0.3083,-0.3084,-0.3081,-0.308,-0.308,-0.308,0,-0.286,-0.2868,-0.288,-0.2896,-0.2907,-0.292,-0.2934,-0.294,-0.2961,-0.297,-0.2986,-0.2996,-0.3018,-0.3034,-0.3052,-0.3064,-0.3076,-0.3078,-0.3079,-0.3074,-0.3067,-0.3071,-0.3081,-0.3078,-0.3079,-0.3079,-0.3079,-0.3079,-0.2852,-0.2859,-0.2876,-0.2889,-0.2902,-0.2914,-0.2922,-0.2936,-0.2949,-0.2967,-0.2978,-0.2992,-0.301,-0.3036,-0.3048,-0.306,-0.3064,-0.3066,-0.3066,-0.3066,-0.3064,-0.3065,-0.3063,-0.3064,-0.3064,-0.3064,-0.3064,0,-0.2846,-0.2857,-0.287,-0.2888,-0.2899,-0.2908,-0.2923,-0.2932,-0.2945,-0.296,-0.2973,-0.299,-0.3006,-0.3024,-0.3041,-0.3047,-0.3053,-0.3051,-0.3051,-0.3053,-0.306,-0.3057,-0.3046,-0.3046,-0.3046,-0.3046,-0.3046,-0.3046,-0.2844,-0.2855,-0.2865,-0.2882,-0.2894,-0.2908,-0.2916,-0.2928,-0.294,-0.2958,-0.2971,-0.2982,-0.2999,-0.3017,-0.3032,-0.3037,-0.3042,-0.3039,-0.3045,-0.3051,-0.3053,-0.3054,-0.3052,-0.304,-0.304,-0.3038,-0.3038,-0.3037]},{"header":{"parameterUnit":"m.s-1","parameterCategory":1,"la1":30.2991,"la2":30.254,"lo1":-89.0895,"lo2":-89.0444,"dy":0.0017,"dx":0.0017,"nx":28,"ny":28,"refTime":"2025-03-24T21:00:00:Z","depth":0,"parameterNumber":3,"parameterNumberName":"V-component_of_WINDS"},"data":[0,0,0,0,0,0,0,0,0,0,0,0,0,0,0,0,0,0,0,0,0,0,0,0,0,0,0,0,0,0,0,0,0,0,0,0,0,0,0,0,0,0,0,0,0,0,0,0,0,0,0,0,0,0,0,0,0,0,1.8972,1.8973,0,1.9127,1.9129,1.9131,1.9154,1.9152,1.9151,1.915,1.9309,1.9315,1.932,0,0,0,0,0,0,0,0,0,0,0,0,0,1.8695,1.87,1.8971,1.8973,1.8975,1.9127,1.9129,1.9131,1.9154,1.9152,1.9151,1.9149,1.9308,1.9314,1.9321,0,0,0,0,0,0,0,0,0,0,0,0,0,1.8829,1.8701,1.8971,1.9005,1.901,1.9127,1.9129,1.9132,1.9154,1.9152,1.915,1.9148,1.9305,1.9313,1.9322,1.9416,0,0,1.9347,1.9351,0,0,0,0,0,0,0,0,1.8821,1.8839,1.8998,1.9003,1.9008,1.9119,1.909,1.9227,1.9155,1.91,1.915,1.9147,1.9248,1.9261,1.9295,1.9423,1.943,1.9348,1.9353,1.9357,1.9359,0,0,0,0,0,0,0,1.8812,1.8833,1.9033,1.9,1.9007,1.9013,1.9029,1.9116,1.9184,1.9104,1.9106,1.9124,1.925,1.9286,1.9299,1.9433,1.9348,1.9355,1.936,1.9364,1.9648,1.965,0,0,0,0,0,0,1.8796,1.8825,1.9028,1.9038,1.8908,1.9019,1.9038,1.9086,1.9183,1.9196,1.9126,1.9125,1.9273,1.9289,1.9304,1.9422,1.9357,1.9364,1.9369,1.9645,1.9648,1.9651,0,0,0,0,0,0,1.879,1.8814,1.9022,1.8932,1.8959,1.9026,1.908,1.909,1.9126,1.9199,1.9211,1.9151,1.9272,1.9292,1.9388,1.9428,1.9368,1.9376,1.9642,1.9646,1.965,1.9658,0,0,0,0,0,0,1.8782,1.8812,1.8848,1.8933,1.8963,1.9103,1.9082,1.9094,1.9141,1.9141,1.9226,1.9238,1.9272,1.9376,1.9397,1.9439,1.9382,1.9639,1.9644,1.9648,1.9655,1.9662,1.9668,0,0,0,0,0,1.8772,1.8844,1.885,1.8875,1.901,1.9105,1.9123,1.9161,1.9144,1.9181,1.9228,1.9235,1.942,1.9385,1.9409,1.9454,1.9637,1.9642,1.9648,1.9652,1.966,1.9668,0,0,0,0,0,0,1.8763,1.8856,1.8863,1.8965,1.9027,1.9109,1.9157,1.9169,1.9238,1.9235,1.9279,1.9298,1.9392,1.9432,1.9392,1.9551,1.9527,1.9537,1.9521,1.953,1.9537,1.9526,1.9389,0,0,0,0,0,1.8773,1.8842,1.8919,1.9001,1.9032,1.9089,1.9132,1.9156,1.9222,1.9249,1.9303,1.9367,1.944,1.9487,1.9558,1.966,1.968,1.9702,1.9709,1.9714,1.9723,1.9782,1.9793,1.967,1.967,1.9669,0,0,1.8794,1.8853,1.8894,1.9001,1.9052,1.9124,1.9111,1.9187,1.9241,1.9261,1.9355,1.9396,1.9471,1.9571,1.9617,1.9607,1.9762,1.9721,1.9725,1.9732,1.9789,1.9801,1.9811,1.9673,1.9673,1.9672,0,0,1.8869,1.892,1.8994,1.9046,1.9124,1.9161,1.9179,1.926,1.9288,1.9383,1.94,1.9464,1.9588,1.9641,1.9684,1.9779,1.9789,1.9801,1.9836,1.9893,1.9902,1.9911,1.9947,1.9959,1.9809,1.981,1.981,0,1.8885,1.8993,1.9031,1.9107,1.9154,1.9175,1.9251,1.9299,1.9396,1.9428,1.9415,1.9572,1.9624,1.9737,1.976,1.9793,1.9816,1.9792,1.9898,1.9907,1.9916,1.9951,1.9964,1.9811,1.9811,1.981,1.981,0,1.901,1.9085,1.9136,1.9229,1.9282,1.9357,1.9407,1.9456,1.9475,1.9514,1.9611,1.9673,1.9758,1.9786,1.9805,1.9902,1.9894,1.9889,1.9866,1.9928,1.9962,1.9975,1.9812,1.9812,1.9811,1.9811,0,0,1.9085,1.9198,1.9217,1.926,1.9347,1.9406,1.9482,1.9565,1.9606,1.9672,1.9738,1.9842,1.9839,1.9887,1.9913,1.9962,2.0035,1.9951,1.9954,1.9966,2.0148,2.0153,2.0168,2.0041,2.0044,2.0046,2.0143,0,1.9172,1.9309,1.9346,1.9463,1.9533,1.9553,1.962,1.9681,1.9719,1.9785,1.9827,1.9901,1.9889,1.9919,1.9969,2.0016,2.0073,2.0009,2.0105,2.0108,2.0087,2.0185,2.019,2.0278,2.0156,2.0158,2.0159,0,1.9291,1.936,1.9484,1.9563,1.9594,1.9653,1.9733,1.9794,1.9864,1.9888,1.9943,1.9964,2.0045,2.0016,2.0129,2.0085,2.0126,2.0155,2.016,2.0172,2.0139,2.0201,2.0307,2.0321,2.018,2.0178,2.0177,0,1.9336,1.9459,1.955,1.9585,1.9679,1.9721,1.9762,1.9829,1.9877,1.9946,1.9978,2.0055,2.0098,2.0157,2.0198,2.0173,2.0309,2.0283,2.0333,2.0332,2.0362,2.036,2.0477,2.0385,2.0384,2.0384,2.0384,0,1.943,1.9505,1.9571,1.9627,1.9712,1.9753,1.9837,1.9878,1.9938,2.0003,2.0025,2.0085,2.0135,2.0202,2.0235,2.0325,2.0343,2.0366,2.0374,2.0365,2.0363,2.0394,2.039,2.0388,2.0387,2.0386,2.0386,0,1.9495,1.9541,1.9642,1.9722,1.9744,1.9804,1.9873,1.9929,1.9967,2.0049,2.007,2.0131,2.0212,2.0258,2.0359,2.0381,2.0481,2.0486,2.0458,2.0462,2.051,2.0506,2.0654,2.0676,2.0566,2.0567,2.0568,0,1.9553,1.9611,1.9698,1.9743,1.9785,1.9857,1.9906,1.9948,1.9998,2.0082,2.0128,2.0209,2.0277,2.0405,2.0458,2.0536,2.0544,2.059,2.0556,2.0545,2.0547,2.0544,2.0551,2.0597,2.0598,2.0598,2.0599,0,1.9651,1.9672,1.9741,1.9819,1.9877,1.9941,2.0004,2.0039,2.0092,2.0148,2.023,2.0283,2.0386,2.0468,2.055,2.0592,2.0606,2.0609,2.0625,2.0618,2.0601,2.0613,2.0477,2.0606,2.0606,2.0605,2.0605,2.0604,1.9716,1.977,1.984,1.9917,1.9969,2.0027,2.0084,2.0129,2.0199,2.0287,2.0307,2.0395,2.0463,2.0575,2.062,2.0689,2.0681,2.0704,2.071,2.0715,2.0718,2.0588,2.0704,2.0704,2.0703,2.0703,2.0703,0,1.9818,1.9864,1.9934,2.0022,2.0083,2.0089,2.0159,2.021,2.0286,2.0349,2.0416,2.0511,2.059,2.065,2.0731,2.0775,2.0783,2.0795,2.0793,2.0803,2.0719,2.0699,2.0787,2.0787,2.0787,2.0787,2.0787,2.0787,1.9878,1.997,1.9998,2.0116,2.0162,2.0248,2.0288,2.0342,2.0393,2.0498,2.0564,2.0602,2.0664,2.075,2.0823,2.0839,2.0868,2.088,2.0897,2.0818,2.0809,2.08,2.0781,2.0885,2.0886,2.0975,2.0976,2.0976]}]]